Weather History for Montpelier, VT

Change the Weather History Date:

Sunday, June 24, 2012

  Actual Average Record
Temperature  
Mean Temperature 63 °F 65 °F  
Max Temperature 78 °F 77 °F 89 °F (2003)
Min Temperature 48 °F 54 °F 39 °F (1988)
Degree Days  
Heating Degree Days 2    
Cooling Degree Days 0 2  
Month to date cooling degree days 37 37  
Year to date cooling degree days 53 47  
Since 1 June cooling degree days 37 37  
Growing Degree Days 13 (Base 50)    
Moisture  
Dew Point 50 °F    
Average Humidity 65    
Maximum Humidity 97    
Minimum Humidity 32    
Precipitation  
Precipitation 0.18 in 0.12 in 0.78 in (2010)
Month to date precipitation 2.87 3.06  
Year to date precipitation 13.20 15.97  
Sea Level Pressure  
Sea Level Pressure 29.98 in    
Wind  
Wind Speed 4 mph (NW)    
Max Wind Speed 16 mph    
Max Gust Speed 22 mph    
Visibility 10 miles    
Events Rain    
T = Trace of Precipitation, MM = Missing Value Source: NWS Daily Summary

Daily Weather History Graph

Daily Weather History Graph

Search for Another Location

Airport:

Trip Planner

Search our weather history database for the weather conditions in past years. The results will help you decide how hot, cold, wet, or windy it might be!

Date:

Astronomy

Jun. 24, 2012 Rise Set
Actual Time 5:07 AM EDT 8:37 PM EDT
Civil Twilight 4:31 AM EDT 9:14 PM EDT
Nautical Twilight 3:42 AM EDT 10:02 PM EDT
Astronomical Twilight 2:40 AM EDT 11:04 PM EDT
Moon 10:21 AM EDT (6/24) 11:21 PM EDT (6/24)
Length of Visible Light 16h 43m
Length of Day
15h 30m
Waxing Crescent, 24% of the Moon is Illuminated
Jun 24
Waxing Crescent
Jun 26
First Quarter
Jul 3
Full
Jul 10
Last Quarter
Jul 19
New

Hourly Weather History & Observations

Time (EDT) Temp. Dew Point Humidity Pressure Visibility Wind Dir Wind Speed Gust Speed Precip Events Conditions
12:51 AM 53.1 °F 48.9 °F 86% 30.00 in 10.0 mi ENE 3.5 mph - N/A   Clear
1:51 AM 51.1 °F 48.0 °F 89% 30.01 in 10.0 mi Calm Calm - N/A   Clear
2:51 AM 50.0 °F 46.4 °F 87% 30.01 in 10.0 mi SSE 3.5 mph - N/A   Clear
3:51 AM 48.0 °F 46.0 °F 93% 30.02 in 10.0 mi South 3.5 mph - N/A   Clear
4:51 AM 48.9 °F 46.9 °F 93% 30.02 in 10.0 mi Calm Calm - N/A   Clear
5:51 AM 48.9 °F 46.9 °F 93% 30.02 in 10.0 mi Calm Calm - N/A   Clear
6:51 AM 54.0 °F 50.0 °F 86% 30.02 in 10.0 mi Calm Calm - N/A   Clear
7:51 AM 59.0 °F 52.0 °F 78% 30.02 in 10.0 mi Calm Calm - N/A   Clear
8:51 AM 66.0 °F 53.1 °F 63% 30.01 in 10.0 mi North 3.5 mph - N/A   Clear
9:51 AM 69.8 °F 51.8 °F 53% 30.02 in 10.0 mi WNW 6.9 mph - N/A   Clear
10:51 AM 73.9 °F 46.9 °F 38% 30.00 in 10.0 mi NNW 9.2 mph - N/A   Clear
11:51 AM 75.0 °F 46.0 °F 36% 30.00 in 10.0 mi NW 11.5 mph - N/A   Clear
12:51 PM 75.9 °F 48.0 °F 37% 29.99 in 10.0 mi WNW 11.5 mph 17.3 mph N/A   Partly Cloudy
1:51 PM 75.9 °F 46.9 °F 36% 29.97 in 10.0 mi NNW 9.2 mph - N/A   Clear
2:51 PM 78.1 °F 46.0 °F 32% 29.95 in 10.0 mi NW 9.2 mph - N/A   Scattered Clouds
3:51 PM 77.0 °F 46.0 °F 33% 29.94 in 10.0 mi WNW 6.9 mph - N/A   Clear
4:51 PM 78.1 °F 46.0 °F 32% 29.92 in 10.0 mi Calm Calm - N/A   Clear
5:51 PM 75.9 °F 46.9 °F 36% 29.92 in 10.0 mi North 4.6 mph - N/A   Mostly Cloudy
6:51 PM 73.9 °F 50.0 °F 43% 29.92 in 10.0 mi SW 3.5 mph - N/A   Clear
7:51 PM 71.1 °F 53.1 °F 53% 29.93 in 10.0 mi Variable 6.9 mph - N/A   Overcast
8:51 PM 61.0 °F 57.9 °F 90% 29.96 in 10.0 mi WNW 6.9 mph 17.3 mph 0.10 in   Overcast
9:51 PM 61.0 °F 59.0 °F 93% 29.96 in 10.0 mi Calm Calm - 0.01 in Rain Light Rain
10:51 PM 60.1 °F 59.0 °F 96% 29.94 in 8.0 mi Calm Calm - 0.03 in Rain Rain
11:51 PM 59.0 °F 57.9 °F 96% 29.92 in 10.0 mi South 3.5 mph - 0.04 in Rain Light Rain